| time (UTC) | temp F | wind direction | speed MPH | gust MPH | rain 1hr in | rain 24hr in | rain mn in | humidity % | barometer mb |
| 20260903092022 | 70 | 242 | 14.0 | 23.0 | 0.00 | 0.35 | 0.02 | 84 | 1016.0 |
| 20260903091544 | 70 | 258 | 7.0 | 18.0 | 0.00 | 0.35 | 0.02 | 85 | 1016.0 |
| 20260903091027 | 70 | 271 | 10.0 | 22.0 | 0.00 | 0.35 | 0.02 | 84 | 1016.1 |
| 20260903090531 | 70 | 264 | 12.0 | 27.0 | 0.00 | 0.35 | 0.02 | 84 | 1016.0 |
| 20260903090032 | 69 | 250 | 13.0 | 27.0 | 0.00 | 0.35 | 0.02 | 85 | 1016.1 |
| 20260903085519 | 69 | 211 | 12.0 | 22.0 | 0.00 | 0.35 | 0.02 | 85 | 1015.7 |
| 20260903085045 | 69 | 235 | 12.0 | 22.0 | 0.00 | 0.35 | 0.02 | 85 | 1015.7 |
| 20260903084528 | 69 | 218 | 11.0 | 24.0 | 0.00 | 0.35 | 0.02 | 86 | 1015.6 |
| 20260903084034 | 69 | 244 | 12.0 | 24.0 | 0.00 | 0.35 | 0.02 | 87 | 1015.6 |
| 20260903083520 | 69 | 235 | 11.0 | 22.0 | 0.00 | 0.35 | 0.02 | 88 | 1015.5 |
| 20260903083023 | 69 | 265 | 8.0 | 19.0 | 0.00 | 0.35 | 0.02 | 88 | 1015.4 |
| 20260903082526 | 69 | 190 | 8.0 | 24.0 | 0.00 | 0.35 | 0.02 | 89 | 1015.3 |
| 20260903082046 | 69 | 189 | 12.0 | 24.0 | 0.00 | 0.35 | 0.02 | 90 | 1015.4 |
| 20260903081528 | 69 | 182 | 9.0 | 16.0 | 0.00 | 0.35 | 0.02 | 90 | 1015.3 |
| 20260903081032 | 69 | 155 | 7.0 | 20.0 | 0.00 | 0.35 | 0.02 | 91 | 1015.3 |
| 20260903080518 | 69 | 194 | 8.0 | 16.0 | 0.04 | 0.35 | 0.02 | 91 | 1015.3 |
| 20260903080057 | 68 | 180 | 9.0 | 17.0 | 0.04 | 0.35 | 0.02 | 92 | 1015.4 |
| 20260903075523 | 68 | 144 | 8.0 | 17.0 | 0.04 | 0.35 | 0.02 | 92 | 1015.4 |
| 20260903075029 | 68 | 228 | 7.0 | 19.0 | 0.04 | 0.35 | 0.02 | 92 | 1015.4 |
| 20260903074533 | 68 | 213 | 9.0 | 19.0 | 0.04 | 0.35 | 0.02 | 92 | 1015.2 |
| 20260903074019 | 67 | 242 | 10.0 | 19.0 | 0.04 | 0.35 | 0.02 | 93 | 1015.3 |
| 20260903073522 | 67 | 216 | 9.0 | 16.0 | 0.04 | 0.35 | 0.02 | 92 | 1015.3 |
| 20260903073022 | 67 | 243 | 9.0 | 16.0 | 0.04 | 0.35 | 0.02 | 92 | 1015.5 |
| 20260903072527 | 67 | 182 | 9.0 | 16.0 | 0.04 | 0.35 | 0.02 | 92 | 1015.4 |
| 20260903072034 | 67 | 234 | 7.0 | 19.0 | 0.04 | 0.35 | 0.02 | 92 | 1015.5 |
| 20260903071519 | 67 | 231 | 10.0 | 19.0 | 0.04 | 0.35 | 0.02 | 92 | 1015.6 |
| 20260903071020 | 67 | 200 | 9.0 | 16.0 | 0.04 | 0.35 | 0.02 | 92 | 1015.6 |
| 20260903070525 | 67 | 227 | 10.0 | 18.0 | 0.00 | 0.31 | 0.02 | 92 | 1015.5 |
| 20260903070020 | 67 | 271 | 6.0 | 17.0 | 0.00 | 0.31 | 0.02 | 92 | 1015.3 |
| 20260903065525 | 67 | 253 | 7.0 | 18.0 | 0.00 | 0.31 | 0.02 | 92 | 1015.4 |
| 20260903065023 | 67 | 286 | 9.0 | 18.0 | 0.00 | 0.31 | 0.02 | 92 | 1015.3 |
| 20260903064555 | 67 | 226 | 7.0 | 16.0 | 0.00 | 0.31 | 0.02 | 92 | 1015.5 |
| 20260903064019 | 67 | 234 | 9.0 | 20.0 | 0.00 | 0.31 | 0.02 | 91 | 1015.6 |
| 20260903063527 | 67 | 185 | 12.0 | 20.0 | 0.00 | 0.31 | 0.02 | 92 | 1015.5 |
| 20260903063046 | 67 | 221 | 9.0 | 23.0 | 0.00 | 0.31 | 0.02 | 92 | 1015.6 |
| 20260903062534 | 67 | 225 | 9.0 | 21.0 | 0.00 | 0.31 | 0.02 | 92 | 1015.5 |
| 20260903062019 | 67 | 185 | 7.0 | 19.0 | 0.00 | 0.31 | 0.02 | 93 | 1015.4 |
| 20260903061544 | 67 | 239 | 10.0 | 20.0 | 0.00 | 0.31 | 0.02 | 92 | 1015.4 |
| 20260903061023 | 67 | 184 | 10.0 | 20.0 | 0.00 | 0.31 | 0.02 | 92 | 1015.3 |
| 20260903060530 | 67 | 213 | 10.0 | 17.0 | 0.00 | 0.31 | 0.02 | 92 | 1015.4 |
| 20260903060029 | 67 | 234 | 7.0 | 16.0 | 0.00 | 0.31 | 0.02 | 92 | 1015.3 |
| 20260903055518 | 67 | 184 | 5.0 | 20.0 | 0.00 | 0.31 | 0.02 | 92 | 1015.2 |
| 20260903055026 | 67 | 202 | 6.0 | 20.0 | 0.00 | 0.31 | 0.02 | 92 | 1015.2 |
| 20260903054554 | 67 | 250 | 5.0 | 13.0 | 0.00 | 0.31 | 0.02 | 92 | 1015.1 |
| 20260903054038 | 67 | 202 | 5.0 | 14.0 | 0.00 | 0.31 | 0.02 | 92 | 1015.2 |
| 20260903053525 | 67 | 190 | 7.0 | 14.0 | 0.00 | 0.31 | 0.02 | 92 | 1015.2 |
| 20260903053051 | 67 | 155 | 5.0 | 14.0 | 0.00 | 0.31 | 0.02 | 92 | 1015.2 |
| 20260903052536 | 67 | 197 | 7.0 | 14.0 | 0.00 | 0.31 | 0.02 | 92 | 1015.0 |
| 20260903052021 | 67 | 178 | 7.0 | 20.0 | 0.00 | 0.31 | 0.02 | 92 | 1015.1 |
| 20260903051532 | 67 | 250 | 10.0 | 20.0 | 0.00 | 0.31 | 0.02 | 92 | 1015.1 |
| 20260903051020 | 67 | 243 | 8.0 | 19.0 | 0.00 | 0.31 | 0.02 | 92 | 1015.2 |
| 20260903050527 | 67 | 202 | 7.0 | 15.0 | 0.00 | 0.31 | 0.02 | 92 | 1015.2 |
| 20260903050024 | 67 | 236 | 9.0 | 18.0 | 0.04 | 0.31 | 0.02 | 92 | 1015.2 |
| 20260903045532 | 67 | 193 | 11.0 | 18.0 | 0.04 | 0.31 | 0.02 | 92 | 1015.2 |
| 20260903045017 | 67 | 218 | 7.0 | 19.0 | 0.04 | 0.31 | 0.02 | 93 | 1015.1 |
| 20260903044523 | 67 | 175 | 10.0 | 19.0 | 0.04 | 0.31 | 0.02 | 93 | 1015.0 |
| 20260903044023 | 67 | 194 | 10.0 | 18.0 | 0.04 | 0.31 | 0.02 | 93 | 1015.1 |
| 20260903043534 | 66 | 184 | 8.0 | 19.0 | 0.04 | 0.31 | 0.02 | 93 | 1015.0 |
| 20260903043017 | 66 | 192 | 7.0 | 20.0 | 0.04 | 0.31 | 0.02 | 93 | 1015.0 |
| 20260903042523 | 66 | 203 | 10.0 | 20.0 | 0.04 | 0.31 | 0.02 | 93 | 1015.1 |
| 20260903042056 | 66 | 200 | 11.0 | 28.0 | 0.04 | 0.31 | 0.02 | 93 | 1015.1 |
| 20260903041517 | 66 | 247 | 8.0 | 16.0 | 0.04 | 0.31 | 0.02 | 94 | 1014.9 |
| 20260903041021 | 66 | 257 | 11.0 | 19.0 | 0.04 | 0.31 | 0.02 | 94 | 1014.9 |
| 20260903040545 | 66 | 223 | 9.0 | 19.0 | 0.04 | 0.31 | 0.02 | 94 | 1014.8 |
| 20260903040043 | 66 | 179 | 8.0 | 19.0 | 0.00 | 0.28 | 0.01 | 94 | 1014.9 |
| 20260903035545 | 66 | 215 | 10.0 | 19.0 | 0.00 | 0.28 | 0.01 | 94 | 1015.0 |
| 20260903035050 | 66 | 213 | 6.0 | 11.0 | 0.00 | 0.28 | 0.01 | 94 | 1015.1 |
| 20260903034519 | 65 | 143 | 5.0 | 12.0 | 0.00 | 0.28 | 0.01 | 94 | 1015.1 |
| 20260903034041 | 65 | 207 | 7.0 | 12.0 | 0.00 | 0.28 | 0.01 | 94 | 1015.2 |
| 20260903033529 | 65 | 168 | 8.0 | 12.0 | 0.00 | 0.28 | 0.01 | 94 | 1015.3 |
| 20260903033035 | 65 | 164 | 6.0 | 15.0 | 0.00 | 0.28 | 0.01 | 93 | 1015.4 |
| 20260903032523 | 65 | 178 | 8.0 | 12.0 | 0.04 | 0.28 | 0.01 | 93 | 1015.5 |
| 20260903032029 | 65 | 174 | 7.0 | 12.0 | 0.04 | 0.28 | 0.01 | 93 | 1015.5 |
| 20260903031534 | 65 | 184 | 8.0 | 14.0 | 0.04 | 0.28 | 0.01 | 93 | 1015.6 |
| 20260903031019 | 65 | 166 | 9.0 | 16.0 | 0.04 | 0.28 | 0.01 | 93 | 1015.6 |
| 20260903030527 | 65 | 173 | 9.0 | 20.0 | 0.04 | 0.28 | 0.01 | 93 | 1015.6 |
| 20260903030026 | 65 | 194 | 10.0 | 20.0 | 0.04 | 0.28 | 0.01 | 93 | 1015.5 |
| 20260903025530 | 65 | 155 | 6.0 | 16.0 | 0.04 | 0.28 | 0.01 | 93 | 1015.4 |
| 20260903025032 | 65 | 173 | 8.0 | 16.0 | 0.04 | 0.28 | 0.01 | 93 | 1015.6 |
| 20260903024522 | 65 | 129 | 5.0 | 18.0 | 0.04 | 0.28 | 0.01 | 92 | 1015.6 |
| 20260903024051 | 65 | 115 | 9.0 | 18.0 | 0.04 | 0.28 | 0.01 | 92 | 1015.5 |
| 20260903023519 | 65 | 130 | 9.0 | 16.0 | 0.04 | 0.28 | 0.01 | 92 | 1015.5 |
| 20260903023025 | 65 | 201 | 8.0 | 18.0 | 0.04 | 0.28 | 0.01 | 92 | 1015.5 |
| 20260903022532 | 65 | 124 | 11.0 | 21.0 | 0.00 | 0.24 | 0.00 | 92 | 1015.7 |
| 20260903022017 | 65 | 178 | 6.0 | 18.0 | 0.00 | 0.24 | 0.00 | 91 | 1015.7 |
| 20260903021524 | 65 | 171 | 8.0 | 16.0 | 0.00 | 0.24 | 0.00 | 91 | 1015.7 |
| 20260903021031 | 65 | 163 | 7.0 | 16.0 | 0.00 | 0.24 | 0.00 | 91 | 1015.8 |
| 20260903020536 | 65 | 158 | 11.0 | 18.0 | 0.00 | 0.24 | 0.00 | 91 | 1015.9 |
| 20260903020017 | 65 | 175 | 8.0 | 18.0 | 0.00 | 0.24 | 0.00 | 90 | 1016.0 |
| 20260903015525 | 65 | 198 | 11.0 | 22.0 | 0.00 | 0.24 | 0.00 | 90 | 1016.0 |
| 20260903015055 | 65 | 183 | 10.0 | 22.0 | 0.00 | 0.24 | 0.00 | 90 | 1016.1 |
| 20260903014521 | 65 | 174 | 11.0 | 20.0 | 0.00 | 0.24 | 0.00 | 89 | 1016.2 |
| 20260903014021 | 65 | 197 | 10.0 | 26.0 | 0.00 | 0.24 | 0.00 | 89 | 1016.0 |
| 20260903013531 | 65 | 162 | 12.0 | 26.0 | 0.00 | 0.24 | 0.00 | 89 | 1016.2 |
| 20260903013019 | 65 | 116 | 8.0 | 23.0 | 0.00 | 0.24 | 0.00 | 88 | 1016.1 |
| 20260903012525 | 65 | 142 | 11.0 | 23.0 | 0.00 | 0.24 | 0.00 | 88 | 1016.1 |
| 20260903012026 | 65 | 174 | 9.0 | 18.0 | 0.00 | 0.24 | 0.00 | 88 | 1016.3 |
| 20260903011534 | 65 | 169 | 6.0 | 17.0 | 0.00 | 0.24 | 0.00 | 88 | 1016.3 |
| 20260903011022 | 65 | 199 | 8.0 | 17.0 | 0.00 | 0.24 | 0.00 | 87 | 1016.4 |
| 20260903010527 | 65 | 262 | 8.0 | 16.0 | 0.00 | 0.24 | 0.00 | 87 | 1016.5 |
| 20260903010026 | 65 | 161 | 8.0 | 19.0 | 0.00 | 0.24 | 0.00 | 86 | 1016.4 |
| 20260903005556 | 66 | 161 | 10.0 | 19.0 | 0.00 | 0.24 | 0.00 | 85 | 1016.5 |
| 20260903005040 | 66 | 147 | 11.0 | 22.0 | 0.00 | 0.24 | 0.00 | 83 | 1016.5 |
| 20260903004526 | 67 | 166 | 10.0 | 22.0 | 0.00 | 0.24 | 0.00 | 83 | 1016.8 |
| 20260903004033 | 67 | 171 | 10.0 | 20.0 | 0.00 | 0.24 | 0.00 | 82 | 1016.7 |
| 20260903003518 | 67 | 195 | 9.0 | 21.0 | 0.00 | 0.24 | 0.00 | 82 | 1016.7 |
| 20260903003043 | 67 | 184 | 10.0 | 21.0 | 0.00 | 0.24 | 0.00 | 81 | 1016.6 |
| 20260903002550 | 67 | 227 | 8.0 | 23.0 | 0.00 | 0.24 | 0.00 | 81 | 1016.7 |
| 20260903002036 | 67 | 146 | 8.0 | 22.0 | 0.00 | 0.24 | 0.00 | 80 | 1016.7 |
| 20260903001521 | 67 | 153 | 11.0 | 22.0 | 0.00 | 0.24 | 0.00 | 80 | 1016.8 |
| 20260903001028 | 67 | 263 | 11.0 | 22.0 | 0.00 | 0.24 | 0.00 | 79 | 1016.9 |
| 20260903000517 | 67 | 49 | 9.0 | 16.0 | 0.00 | 0.24 | 0.00 | 79 | 1016.9 |
| 20260903000156 | 67 | 185 | 8.0 | 17.0 | 0.00 | 0.24 | 0.00 | 78 | 1017.1 |
| 20260902235529 | 67 | 182 | 8.0 | 18.0 | 0.00 | 0.24 | 0.00 | 78 | 1017.1 |
| 20260902235056 | 67 | 197 | 9.0 | 23.0 | 0.00 | 0.24 | 0.00 | 78 | 1017.0 |
| 20260902234519 | 67 | 186 | 8.0 | 23.0 | 0.00 | 0.24 | 0.00 | 77 | 1017.0 |
| 20260902234023 | 67 | 138 | 10.0 | 20.0 | 0.00 | 0.24 | 0.00 | 77 | 1017.0 |
| 20260902233529 | 67 | 176 | 12.0 | 20.0 | 0.00 | 0.24 | 0.00 | 77 | 1017.1 |
| 20260902233018 | 67 | 157 | 9.0 | 19.0 | 0.00 | 0.24 | 0.00 | 77 | 1017.2 |
| 20260902232522 | 67 | 184 | 9.0 | 18.0 | 0.00 | 0.24 | 0.00 | 77 | 1017.2 |
| 20260902232031 | 66 | 171 | 10.0 | 18.0 | 0.00 | 0.24 | 0.00 | 78 | 1017.3 |
| 20260902231519 | 66 | 167 | 7.0 | 19.0 | 0.00 | 0.24 | 0.00 | 78 | 1017.2 |
| 20260902231025 | 66 | 145 | 10.0 | 19.0 | 0.00 | 0.24 | 0.00 | 78 | 1017.3 |
| 20260902230526 | 66 | 200 | 10.0 | 18.0 | 0.00 | 0.24 | 0.00 | 78 | 1017.4 |
| 20260902230026 | 66 | 190 | 9.0 | 17.0 | 0.00 | 0.24 | 0.00 | 78 | 1017.4 |
| 20260902225534 | 66 | 175 | 9.0 | 18.0 | 0.00 | 0.24 | 0.00 | 79 | 1017.6 |
| 20260902225023 | 66 | 207 | 8.0 | 21.0 | 0.00 | 0.24 | 0.00 | 79 | 1017.5 |
| 20260902224531 | 66 | 150 | 10.0 | 21.0 | 0.00 | 0.24 | 0.00 | 78 | 1017.5 |
| 20260902224036 | 66 | 155 | 8.0 | 23.0 | 0.00 | 0.24 | 0.00 | 78 | 1017.5 |
| 20260902223524 | 66 | 181 | 10.0 | 23.0 | 0.00 | 0.24 | 0.00 | 78 | 1017.5 |
| 20260902223033 | 66 | 170 | 11.0 | 22.0 | 0.00 | 0.24 | 0.00 | 76 | 1017.6 |
| 20260902222522 | 66 | 211 | 10.0 | 22.0 | 0.00 | 0.24 | 0.00 | 76 | 1017.7 |
| 20260902222028 | 66 | 130 | 6.0 | 14.0 | 0.00 | 0.24 | 0.00 | 76 | 1017.6 |
| 20260902221534 | 66 | 180 | 6.0 | 14.0 | 0.00 | 0.24 | 0.00 | 76 | 1017.6 |
| 20260902221019 | 66 | 147 | 7.0 | 14.0 | 0.00 | 0.24 | 0.00 | 75 | 1017.7 |
| 20260902220525 | 66 | 175 | 6.0 | 14.0 | 0.00 | 0.24 | 0.00 | 75 | 1017.8 |
| 20260902220022 | 66 | 202 | 6.0 | 13.0 | 0.00 | 0.24 | 0.00 | 75 | 1017.9 |
| 20260902215528 | 66 | 165 | 7.0 | 12.0 | 0.00 | 0.24 | 0.05 | 75 | 1017.9 |
| 20260902215023 | 66 | 181 | 7.0 | 17.0 | 0.00 | 0.24 | 0.05 | 75 | 1018.0 |
| 20260902214528 | 66 | 105 | 7.0 | 17.0 | 0.00 | 0.24 | 0.05 | 75 | 1018.0 |
| 20260902214034 | 66 | 214 | 6.0 | 13.0 | 0.00 | 0.24 | 0.05 | 75 | 1017.9 |
| 20260902213535 | 66 | 163 | 5.0 | 17.0 | 0.00 | 0.24 | 0.05 | 75 | 1017.9 |
| 20260902213018 | 66 | 80 | 6.0 | 17.0 | 0.00 | 0.24 | 0.05 | 75 | 1018.0 |
| 20260902212522 | 67 | 184 | 6.0 | 17.0 | 0.00 | 0.24 | 0.05 | 75 | 1018.0 |
| 20260902212054 | 67 | 182 | 9.0 | 17.0 | 0.00 | 0.24 | 0.05 | 75 | 1017.9 |
| 20260902211520 | 67 | 176 | 9.0 | 31.0 | 0.00 | 0.24 | 0.05 | 75 | 1018.1 |
| 20260902211026 | 67 | 139 | 6.0 | 31.0 | 0.00 | 0.24 | 0.05 | 73 | 1018.1 |
| 20260902210529 | 67 | 72 | 10.0 | 18.0 | 0.00 | 0.24 | 0.05 | 73 | 1018.2 |
| 20260902210056 | 66 | 156 | 9.0 | 24.0 | 0.00 | 0.24 | 0.05 | 73 | 1018.2 |
| 20260902205523 | 66 | 214 | 11.0 | 24.0 | 0.00 | 0.24 | 0.05 | 74 | 1018.2 |
| 20260902205056 | 66 | 183 | 8.0 | 14.0 | 0.00 | 0.24 | 0.05 | 75 | 1018.3 |
| 20260902204520 | 67 | 169 | 8.0 | 14.0 | 0.00 | 0.24 | 0.05 | 76 | 1018.3 |
| 20260902204043 | 67 | 195 | 8.0 | 18.0 | 0.00 | 0.24 | 0.05 | 76 | 1018.3 |
| 20260902203549 | 66 | 181 | 9.0 | 25.0 | 0.00 | 0.24 | 0.05 | 76 | 1018.3 |
| 20260902203016 | 66 | 293 | 11.0 | 25.0 | 0.00 | 0.24 | 0.05 | 78 | 1018.3 |
| 20260902202520 | 66 | 158 | 6.0 | 16.0 | 0.00 | 0.24 | 0.05 | 79 | 1018.2 |
| 20260902202029 | 66 | 186 | 8.0 | 16.0 | 0.00 | 0.24 | 0.05 | 79 | 1018.3 |
| 20260902201518 | 67 | 102 | 5.0 | 13.0 | 0.00 | 0.24 | 0.05 | 79 | 1018.3 |
| 20260902201025 | 67 | 154 | 5.0 | 10.0 | 0.00 | 0.24 | 0.05 | 79 | 1018.4 |
| 20260902200526 | 67 | 189 | 2.0 | 10.0 | 0.00 | 0.24 | 0.05 | 79 | 1018.4 |
| 20260902200022 | 67 | 127 | 4.0 | 9.0 | 0.00 | 0.24 | 0.05 | 78 | 1018.4 |
| 20260902195528 | 67 | 132 | 4.0 | 9.0 | 0.00 | 0.24 | 0.05 | 78 | 1018.4 |
| 20260902195033 | 67 | 142 | 3.0 | 11.0 | 0.00 | 0.24 | 0.05 | 78 | 1018.5 |
| 20260902194530 | 67 | 123 | 4.0 | 11.0 | 0.00 | 0.24 | 0.05 | 77 | 1018.6 |
| 20260902194034 | 67 | 146 | 3.0 | 11.0 | 0.00 | 0.24 | 0.05 | 77 | 1018.6 |
| 20260902193520 | 67 | 142 | 5.0 | 14.0 | 0.00 | 0.24 | 0.05 | 77 | 1018.6 |
| 20260902193022 | 67 | 200 | 8.0 | 14.0 | 0.00 | 0.24 | 0.05 | 77 | 1018.6 |
| 20260902192528 | 67 | 138 | 5.0 | 15.0 | 0.00 | 0.24 | 0.05 | 77 | 1018.5 |
| 20260902192031 | 67 | 138 | 6.0 | 15.0 | 0.00 | 0.24 | 0.05 | 76 | 1018.6 |
| 20260902191530 | 68 | 128 | 9.0 | 15.0 | 0.00 | 0.24 | 0.05 | 76 | 1018.7 |
| 20260902190532 | 68 | 169 | 10.0 | 17.0 | 0.00 | 0.24 | 0.05 | 75 | 1018.6 |
| 20260902190029 | 68 | 140 | 9.0 | 18.0 | 0.00 | 0.24 | 0.05 | 74 | 1018.6 |
| 20260902185523 | 67 | 160 | 8.0 | 16.0 | 0.00 | 0.24 | 0.05 | 72 | 1018.6 |
| 20260902185031 | 67 | 143 | 7.0 | 15.0 | 0.00 | 0.24 | 0.05 | 71 | 1018.7 |
| 20260902184520 | 67 | 165 | 8.0 | 14.0 | 0.00 | 0.24 | 0.05 | 71 | 1018.7 |
| 20260902184046 | 67 | 186 | 9.0 | 15.0 | 0.00 | 0.24 | 0.05 | 71 | 1018.8 |
| 20260902183527 | 67 | 126 | 8.0 | 15.0 | 0.00 | 0.24 | 0.05 | 71 | 1018.8 |
| 20260902183037 | 67 | 121 | 8.0 | 18.0 | 0.00 | 0.24 | 0.05 | 73 | 1018.8 |
| 20260902182542 | 67 | 200 | 9.0 | 18.0 | 0.00 | 0.24 | 0.05 | 75 | 1018.8 |
| 20260902182028 | 67 | 198 | 7.0 | 16.0 | 0.00 | 0.24 | 0.05 | 76 | 1018.7 |
| 20260902181517 | 67 | 176 | 7.0 | 15.0 | 0.00 | 0.24 | 0.05 | 76 | 1018.8 |
| 20260902181041 | 67 | 237 | 10.0 | 17.0 | 0.00 | 0.24 | 0.05 | 77 | 1018.7 |
| 20260902180528 | 67 | 244 | 9.0 | 17.0 | 0.00 | 0.24 | 0.05 | 77 | 1018.8 |
| 20260902180027 | 67 | 225 | 8.0 | 20.0 | 0.00 | 0.24 | 0.05 | 78 | 1018.8 |
| 20260902175534 | 67 | 211 | 6.0 | 20.0 | 0.00 | 0.24 | 0.05 | 78 | 1018.8 |
| 20260902175017 | 67 | 198 | 9.0 | 16.0 | 0.00 | 0.24 | 0.05 | 78 | 1018.9 |
| 20260902174523 | 67 | 261 | 9.0 | 16.0 | 0.00 | 0.24 | 0.05 | 78 | 1019.0 |
| 20260902174029 | 67 | 163 | 10.0 | 17.0 | 0.00 | 0.24 | 0.05 | 78 | 1018.9 |
| 20260902173518 | 68 | 180 | 8.0 | 15.0 | 0.00 | 0.24 | 0.05 | 78 | 1018.9 |
| 20260902173022 | 68 | 153 | 7.0 | 14.0 | 0.00 | 0.24 | 0.05 | 78 | 1019.0 |
| 20260902172528 | 68 | 215 | 8.0 | 14.0 | 0.00 | 0.24 | 0.05 | 78 | 1019.0 |
| 20260902172017 | 68 | 209 | 8.0 | 14.0 | 0.00 | 0.24 | 0.05 | 78 | 1019.1 |
| 20260902171527 | 68 | 221 | 6.0 | 14.0 | 0.00 | 0.24 | 0.05 | 77 | 1019.1 |
| 20260902171034 | 68 | 194 | 8.0 | 14.0 | 0.00 | 0.24 | 0.05 | 77 | 1019.0 |
| 20260902170533 | 68 | 192 | 10.0 | 17.0 | 0.00 | 0.24 | 0.05 | 77 | 1019.1 |
| 20260902170033 | 68 | 215 | 6.0 | 18.0 | 0.00 | 0.24 | 0.05 | 77 | 1019.1 |
| 20260902165520 | 68 | 204 | 10.0 | 18.0 | 0.00 | 0.24 | 0.05 | 77 | 1019.0 |
| 20260902165053 | 68 | 229 | 11.0 | 16.0 | 0.00 | 0.24 | 0.05 | 77 | 1019.1 |
| 20260902164538 | 68 | 171 | 7.0 | 17.0 | 0.00 | 0.24 | 0.05 | 76 | 1019.1 |
| 20260902164046 | 68 | 217 | 8.0 | 16.0 | 0.00 | 0.24 | 0.05 | 76 | 1019.1 |
| 20260902163532 | 68 | 206 | 9.0 | 16.0 | 0.00 | 0.24 | 0.05 | 75 | 1019.2 |
| 20260902163039 | 68 | 222 | 8.0 | 16.0 | 0.00 | 0.24 | 0.05 | 75 | 1019.1 |
| 20260902162521 | 68 | 172 | 9.0 | 17.0 | 0.00 | 0.24 | 0.05 | 74 | 1019.2 |
| 20260902162028 | 68 | 200 | 9.0 | 17.0 | 0.00 | 0.24 | 0.05 | 74 | 1019.2 |
| 20260902161533 | 68 | 161 | 10.0 | 17.0 | 0.00 | 0.24 | 0.05 | 73 | 1019.2 |
| 20260902161022 | 68 | 236 | 6.0 | 17.0 | 0.00 | 0.24 | 0.05 | 73 | 1019.2 |
| 20260902160555 | 68 | 185 | 10.0 | 17.0 | 0.00 | 0.24 | 0.05 | 74 | 1019.3 |
| 20260902160031 | 68 | 205 | 8.0 | 19.0 | 0.00 | 0.24 | 0.05 | 75 | 1019.3 |
| 20260902155521 | 69 | 218 | 10.0 | 19.0 | 0.00 | 0.24 | 0.05 | 75 | 1019.3 |
| 20260902155045 | 69 | 146 | 8.0 | 12.0 | 0.00 | 0.24 | 0.05 | 75 | 1019.4 |
| 20260902154551 | 69 | 197 | 7.0 | 16.0 | 0.00 | 0.24 | 0.05 | 74 | 1019.5 |
| 20260902154034 | 69 | 216 | 9.0 | 16.0 | 0.00 | 0.24 | 0.05 | 73 | 1019.5 |
| 20260902153524 | 69 | 195 | 7.0 | 16.0 | 0.00 | 0.24 | 0.05 | 71 | 1019.6 |
| 20260902153022 | 69 | 188 | 9.0 | 16.0 | 0.00 | 0.24 | 0.05 | 70 | 1019.7 |
| 20260902152529 | 69 | 163 | 7.0 | 13.0 | 0.00 | 0.24 | 0.05 | 70 | 1019.6 |
| 20260902152017 | 69 | 223 | 7.0 | 13.0 | 0.00 | 0.24 | 0.05 | 70 | 1019.6 |
| 20260902151521 | 69 | 242 | 6.0 | 16.0 | 0.00 | 0.24 | 0.05 | 71 | 1019.6 |
| 20260902151028 | 69 | 236 | 9.0 | 16.0 | 0.00 | 0.24 | 0.05 | 71 | 1019.7 |
| 20260902150536 | 69 | 160 | 8.0 | 16.0 | 0.00 | 0.24 | 0.05 | 71 | 1019.7 |
| 20260902150019 | 69 | 208 | 7.0 | 14.0 | 0.00 | 0.24 | 0.05 | 72 | 1019.8 |
| 20260902145522 | 69 | 198 | 8.0 | 18.0 | 0.00 | 0.24 | 0.05 | 72 | 1019.8 |
| 20260902145056 | 69 | 248 | 8.0 | 18.0 | 0.00 | 0.24 | 0.05 | 71 | 1019.8 |
| 20260902144524 | 69 | 150 | 8.0 | 14.0 | 0.00 | 0.24 | 0.05 | 72 | 1019.8 |
| 20260902144055 | 69 | 192 | 7.0 | 16.0 | 0.00 | 0.24 | 0.05 | 73 | 1019.8 |
| 20260902143521 | 69 | 288 | 5.0 | 16.0 | 0.00 | 0.24 | 0.05 | 72 | 1019.9 |
| 20260902143022 | 69 | 164 | 8.0 | 13.0 | 0.00 | 0.24 | 0.05 | 72 | 1020.0 |
| 20260902142548 | 69 | 194 | 6.0 | 17.0 | 0.00 | 0.24 | 0.05 | 71 | 1020.0 |
| 20260902142032 | 69 | 164 | 8.0 | 18.0 | 0.00 | 0.24 | 0.05 | 70 | 1020.0 |
| 20260902141521 | 69 | 184 | 6.0 | 14.0 | 0.00 | 0.24 | 0.05 | 71 | 1020.0 |
| 20260902141022 | 70 | 192 | 6.0 | 16.0 | 0.00 | 0.24 | 0.05 | 71 | 1020.0 |
| 20260902140530 | 70 | 173 | 6.0 | 16.0 | 0.00 | 0.24 | 0.05 | 70 | 1020.0 |
| 20260902140031 | 70 | 217 | 7.0 | 14.0 | 0.00 | 0.24 | 0.05 | 70 | 1019.9 |
| 20260902135520 | 70 | 171 | 7.0 | 16.0 | 0.00 | 0.24 | 0.05 | 70 | 1019.9 |
| 20260902135028 | 70 | 182 | 5.0 | 16.0 | 0.00 | 0.24 | 0.05 | 70 | 1019.9 |
| 20260902134533 | 70 | 190 | 8.0 | 14.0 | 0.00 | 0.24 | 0.05 | 71 | 1019.9 |
| 20260902134018 | 70 | 199 | 5.0 | 14.0 | 0.00 | 0.24 | 0.05 | 71 | 1019.9 |
| 20260902133526 | 70 | 236 | 8.0 | 12.0 | 0.00 | 0.24 | 0.05 | 69 | 1019.9 |
| 20260902133033 | 70 | 238 | 7.0 | 12.0 | 0.00 | 0.24 | 0.05 | 69 | 1020.0 |
| 20260902132521 | 70 | 244 | 6.0 | 12.0 | 0.00 | 0.24 | 0.05 | 69 | 1020.0 |
| 20260902132043 | 70 | 238 | 6.0 | 11.0 | 0.00 | 0.24 | 0.05 | 69 | 1020.1 |
| 20260902131531 | 71 | 265 | 7.0 | 13.0 | 0.00 | 0.24 | 0.05 | 68 | 1020.1 |
| 20260902131019 | 71 | 184 | 9.0 | 13.0 | 0.00 | 0.24 | 0.05 | 68 | 1020.0 |
| 20260902130527 | 71 | 212 | 6.0 | 14.0 | 0.00 | 0.24 | 0.05 | 70 | 1020.0 |
| 20260902130023 | 71 | 178 | 9.0 | 14.0 | 0.00 | 0.24 | 0.05 | 70 | 1019.9 |
| 20260902125530 | 71 | 192 | 7.0 | 17.0 | 0.00 | 0.24 | 0.05 | 70 | 1020.0 |
| 20260902125020 | 70 | 236 | 7.0 | 17.0 | 0.00 | 0.24 | 0.05 | 70 | 1020.0 |
| 20260902124527 | 70 | 225 | 8.0 | 15.0 | 0.00 | 0.24 | 0.05 | 70 | 1020.0 |
| 20260902124033 | 70 | 248 | 9.0 | 14.0 | 0.00 | 0.24 | 0.05 | 71 | 1019.9 |
| 20260902123517 | 70 | 178 | 9.0 | 14.0 | 0.00 | 0.24 | 0.05 | 72 | 1019.9 |
| 20260902123043 | 69 | 259 | 8.0 | 14.0 | 0.00 | 0.24 | 0.05 | 72 | 1019.9 |
| 20260902122531 | 69 | 173 | 6.0 | 15.0 | 0.00 | 0.24 | 0.05 | 72 | 1020.0 |
| 20260902122021 | 69 | 188 | 8.0 | 15.0 | 0.00 | 0.24 | 0.05 | 73 | 1019.9 |
| 20260902121527 | 69 | 248 | 7.0 | 15.0 | 0.00 | 0.24 | 0.05 | 74 | 1019.8 |
| 20260902121035 | 69 | 194 | 7.0 | 14.0 | 0.00 | 0.24 | 0.05 | 74 | 1019.9 |
| 20260902120524 | 69 | 209 | 5.0 | 13.0 | 0.00 | 0.24 | 0.05 | 74 | 1019.9 |
| 20260902120024 | 69 | 218 | 6.0 | 11.0 | 0.00 | 0.24 | 0.05 | 73 | 1019.9 |
| 20260902115550 | 69 | 236 | 7.0 | 12.0 | 0.00 | 0.24 | 0.05 | 72 | 1019.9 |
| 20260902115032 | 69 | 189 | 8.0 | 12.0 | 0.00 | 0.24 | 0.05 | 72 | 1019.9 |
| 20260902114521 | 69 | 227 | 7.0 | 11.0 | 0.00 | 0.24 | 0.05 | 73 | 1020.0 |
| 20260902114030 | 69 | 168 | 6.0 | 10.0 | 0.00 | 0.24 | 0.05 | 73 | 1020.1 |
| 20260902113518 | 69 | 234 | 5.0 | 12.0 | 0.00 | 0.24 | 0.05 | 73 | 1020.1 |
| 20260902113027 | 69 | 261 | 4.0 | 14.0 | 0.00 | 0.24 | 0.05 | 73 | 1020.1 |
| 20260902112534 | 69 | 244 | 6.0 | 14.0 | 0.00 | 0.24 | 0.05 | 72 | 1020.0 |
| 20260902112042 | 69 | 269 | 8.0 | 15.0 | 0.00 | 0.24 | 0.05 | 72 | 1020.1 |
| 20260902111528 | 69 | 240 | 7.0 | 15.0 | 0.00 | 0.24 | 0.05 | 72 | 1020.2 |
| 20260902111016 | 69 | 242 | 10.0 | 15.0 | 0.00 | 0.24 | 0.05 | 72 | 1020.2 |
| 20260902110521 | 69 | 217 | 9.0 | 13.0 | 0.00 | 0.24 | 0.05 | 72 | 1020.3 |
| 20260902110023 | 69 | 223 | 9.0 | 14.0 | 0.00 | 0.24 | 0.05 | 74 | 1020.3 |
| 20260902105527 | 68 | 190 | 8.0 | 15.0 | 0.00 | 0.24 | 0.05 | 74 | 1020.2 |
| 20260902105051 | 68 | 254 | 9.0 | 15.0 | 0.00 | 0.24 | 0.05 | 74 | 1020.2 |
| 20260902104519 | 68 | 234 | 9.0 | 15.0 | 0.00 | 0.24 | 0.05 | 79 | 1020.3 |
| 20260902104021 | 67 | 290 | 6.0 | 10.0 | 0.00 | 0.24 | 0.05 | 81 | 1020.3 |
| 20260902103529 | 67 | 209 | 5.0 | 12.0 | 0.00 | 0.24 | 0.05 | 82 | 1020.2 |
| 20260902103017 | 67 | 241 | 7.0 | 12.0 | 0.00 | 0.24 | 0.05 | 83 | 1020.2 |
| 20260902102545 | 67 | 245 | 4.0 | 12.0 | 0.04 | 0.24 | 0.05 | 84 | 1020.2 |
| 20260902102026 | 66 | 259 | 7.0 | 12.0 | 0.24 | 0.24 | 0.05 | 84 | 1020.1 |
| 20260902101555 | 66 | 259 | 5.0 | 12.0 | 0.24 | 0.24 | 0.05 | 85 | 1020.0 |
| 20260902101021 | 66 | 239 | 5.0 | 10.0 | 0.24 | 0.24 | 0.05 | 85 | 1020.1 |
| 20260902100529 | 66 | 230 | 3.0 | 8.0 | 0.24 | 0.24 | 0.05 | 85 | 1020.1 |
| 20260902100045 | 66 | 190 | 2.0 | 4.0 | 0.24 | 0.24 | 0.05 | 85 | 1020.2 |
| 20260902095526 | 66 | 158 | 1.0 | 5.0 | 0.24 | 0.24 | 0.05 | 84 | 1020.2 |
| 20260902095034 | 66 | 208 | 2.0 | 5.0 | 0.24 | 0.24 | 0.05 | 84 | 1020.2 |
| 20260902094522 | 66 | 236 | 1.0 | 7.0 | 0.24 | 0.24 | 0.05 | 83 | 1020.1 |
| 20260902094029 | 66 | 247 | 2.0 | 10.0 | 0.24 | 0.24 | 0.05 | 82 | 1020.1 |
| 20260902093534 | 67 | 226 | 5.0 | 10.0 | 0.24 | 0.24 | 0.05 | 82 | 1020.0 |
| 20260902093021 | 68 | 246 | 6.0 | 10.0 | 0.24 | 0.24 | 0.05 | 81 | 1020.1 |
| 20260902092527 | 69 | 207 | 6.0 | 10.0 | 0.16 | 0.16 | 0.03 | 81 | 1020.1 |